Time,TemperatureF,DewpointF,PressureIn,WindDirection,WindDirectionDegrees,WindSpeedMPH,WindSpeedGustMPH,Humidity,HourlyPrecipIn,Conditions,Clouds,dailyrainin,SoftwareType,DateUTC
2013-01-30 00:02:00,52.4,51.0,29.18,NW,318,0.0,0.0,97,0.00,,,0.21,TxWx,2013-01-30 06:02:00,
2013-01-30 00:07:00,52.4,51.0,29.17,NW,319,0.0,0.0,97,0.00,,,0.22,TxWx,2013-01-30 06:07:00,
2013-01-30 00:13:00,52.3,51.0,29.16,NW,325,0.0,0.0,97,0.00,,,0.22,TxWx,2013-01-30 06:13:00,
2013-01-30 00:18:00,52.2,51.0,29.16,NW,325,0.0,0.0,97,0.00,,,0.23,TxWx,2013-01-30 06:18:00,
2013-01-30 00:23:00,52.2,51.0,29.16,NW,315,0.0,0.0,97,0.00,,,0.23,TxWx,2013-01-30 06:23:00,
2013-01-30 00:28:00,52.3,51.0,29.16,NW,321,0.0,0.0,97,0.00,,,0.24,TxWx,2013-01-30 06:28:00,
2013-01-30 00:33:00,52.4,51.0,29.16,NNW,341,0.0,0.0,97,0.00,,,0.24,TxWx,2013-01-30 06:33:00,
2013-01-30 00:39:00,52.3,51.0,29.17,NNW,342,0.0,0.0,97,0.00,,,0.24,TxWx,2013-01-30 06:39:00,
2013-01-30 00:44:00,52.4,51.0,29.17,NNW,343,0.0,0.0,97,0.00,,,0.25,TxWx,2013-01-30 06:44:00,
2013-01-30 00:49:00,52.3,51.0,29.16,NNW,345,0.0,0.0,97,0.00,,,0.25,TxWx,2013-01-30 06:49:00,
2013-01-30 00:54:00,52.3,51.0,29.16,NNW,345,0.0,0.0,97,0.00,,,0.26,TxWx,2013-01-30 06:54:00,
2013-01-30 00:59:00,52.2,51.0,29.16,NNW,344,0.0,0.0,97,0.00,,,0.27,TxWx,2013-01-30 06:59:00,
2013-01-30 01:05:00,52.0,51.0,29.16,NNW,344,0.0,0.0,97,0.00,,,0.28,TxWx,2013-01-30 07:05:00,
2013-01-30 01:10:00,51.9,51.0,29.15,NNW,343,0.0,0.0,97,0.00,,,0.29,TxWx,2013-01-30 07:10:00,
2013-01-30 01:15:00,51.6,51.0,29.15,NNW,343,0.0,0.0,96,0.00,,,0.29,TxWx,2013-01-30 07:15:00,
2013-01-30 01:21:00,51.5,51.0,29.15,NNW,343,0.0,0.0,96,0.00,,,0.30,TxWx,2013-01-30 07:21:00,
2013-01-30 01:26:00,51.4,50.0,29.13,NNW,344,0.0,0.0,96,0.00,,,0.31,TxWx,2013-01-30 07:26:00,
2013-01-30 01:31:00,51.2,50.0,29.13,NNW,345,0.0,0.0,97,0.00,,,0.32,TxWx,2013-01-30 07:31:00,
2013-01-30 01:36:00,51.1,50.0,29.13,NNW,343,0.0,0.0,97,0.00,,,0.32,TxWx,2013-01-30 07:36:00,
2013-01-30 01:41:00,51.1,50.0,29.12,NNW,345,0.0,0.0,97,0.00,,,0.33,TxWx,2013-01-30 07:41:00,
2013-01-30 01:46:00,51.0,50.0,29.12,NNW,346,0.0,0.0,97,0.00,,,0.33,TxWx,2013-01-30 07:46:00,
2013-01-30 01:51:00,50.9,50.0,29.12,NNW,345,0.0,0.0,97,0.00,,,0.34,TxWx,2013-01-30 07:51:00,
2013-01-30 01:57:00,50.7,50.0,29.13,NNW,346,0.0,0.0,97,0.00,,,0.34,TxWx,2013-01-30 07:57:00,
2013-01-30 02:02:00,50.7,50.0,29.13,NNW,346,0.0,0.0,97,0.00,,,0.35,TxWx,2013-01-30 08:02:00,
2013-01-30 02:07:00,50.9,50.0,29.14,NNW,346,0.0,0.0,97,0.00,,,0.36,TxWx,2013-01-30 08:07:00,
2013-01-30 02:12:00,50.8,50.0,29.14,NNW,344,0.0,0.0,97,0.00,,,0.36,TxWx,2013-01-30 08:12:00,
2013-01-30 02:17:00,50.7,50.0,29.14,NNW,344,0.0,0.0,97,0.00,,,0.37,TxWx,2013-01-30 08:17:00,
2013-01-30 02:23:00,50.4,49.0,29.13,NNW,344,0.0,0.0,97,0.00,,,0.38,TxWx,2013-01-30 08:23:00,
2013-01-30 02:28:00,50.4,49.0,29.13,NNW,343,0.0,0.0,97,0.00,,,0.38,TxWx,2013-01-30 08:28:00,
2013-01-30 02:33:00,50.4,49.0,29.13,NNW,343,0.0,0.0,97,0.00,,,0.39,TxWx,2013-01-30 08:33:00,
2013-01-30 02:38:00,50.3,49.0,29.14,NNW,343,0.0,0.0,97,0.00,,,0.39,TxWx,2013-01-30 08:38:00,
2013-01-30 02:44:00,50.2,49.0,29.15,NNW,343,0.0,0.0,97,0.00,,,0.40,TxWx,2013-01-30 08:44:00,
2013-01-30 02:49:00,50.1,49.0,29.15,NNW,342,0.0,0.0,97,0.00,,,0.40,TxWx,2013-01-30 08:49:00,
2013-01-30 02:54:00,50.0,49.0,29.15,NNW,343,0.0,0.0,97,0.00,,,0.41,TxWx,2013-01-30 08:54:00,
2013-01-30 02:59:00,50.0,49.0,29.16,NNW,341,0.0,0.0,97,0.00,,,0.42,TxWx,2013-01-30 08:59:00,
2013-01-30 03:04:00,49.9,49.0,29.16,NNW,341,0.0,0.0,97,0.00,,,0.43,TxWx,2013-01-30 09:04:00,
2013-01-30 03:09:00,49.7,49.0,29.16,NNW,341,0.0,0.0,97,0.00,,,0.43,TxWx,2013-01-30 09:09:00,
2013-01-30 03:14:00,49.8,49.0,29.16,NNW,341,0.0,0.0,97,0.00,,,0.44,TxWx,2013-01-30 09:14:00,
2013-01-30 03:19:00,49.7,49.0,29.16,NNW,340,0.0,0.0,97,0.00,,,0.44,TxWx,2013-01-30 09:19:00,
2013-01-30 03:25:00,49.7,49.0,29.15,NNW,340,0.0,0.0,97,0.00,,,0.45,TxWx,2013-01-30 09:25:00,
2013-01-30 03:30:00,49.6,49.0,29.16,NNW,341,0.0,0.0,97,0.00,,,0.45,TxWx,2013-01-30 09:30:00,
2013-01-30 03:35:00,49.6,49.0,29.16,NNW,340,0.0,0.0,97,0.00,,,0.46,TxWx,2013-01-30 09:35:00,
2013-01-30 03:40:00,49.6,49.0,29.14,NNW,340,0.0,0.0,97,0.00,,,0.47,TxWx,2013-01-30 09:40:00,
2013-01-30 03:45:00,45.5,44.0,29.15,NW,319,0.0,0.0,94,0.00,,,0.47,TxWx,2013-01-30 09:45:00,
2013-01-30 03:50:00,43.2,42.0,29.15,NW,316,0.0,0.0,95,0.00,,,0.47,TxWx,2013-01-30 09:50:00,
2013-01-30 03:55:00,42.3,41.0,29.13,NNW,327,0.0,0.0,96,0.00,,,0.47,TxWx,2013-01-30 09:55:00,
2013-01-30 04:00:00,41.8,41.0,29.12,NW,320,0.0,0.0,96,0.00,,,0.47,TxWx,2013-01-30 10:00:00,
2013-01-30 04:05:00,41.4,40.0,29.12,NW,321,0.0,0.0,97,0.00,,,0.47,TxWx,2013-01-30 10:05:00,
2013-01-30 04:10:00,41.2,40.0,29.12,NNW,331,0.0,0.0,97,0.00,,,0.48,TxWx,2013-01-30 10:10:00,
2013-01-30 04:15:00,40.9,40.0,29.12,NNW,330,0.0,0.0,97,0.00,,,0.48,TxWx,2013-01-30 10:15:00,
2013-01-30 04:21:00,40.5,39.0,29.11,NNW,335,0.0,0.0,97,0.00,,,0.48,TxWx,2013-01-30 10:21:00,
2013-01-30 04:26:00,40.5,39.0,29.09,NNW,333,0.0,0.0,97,0.00,,,0.48,TxWx,2013-01-30 10:26:00,
2013-01-30 04:31:00,40.6,40.0,29.08,NNW,330,0.0,0.0,97,0.00,,,0.48,TxWx,2013-01-30 10:31:00,
2013-01-30 04:36:00,40.4,39.0,29.07,NNW,336,0.0,0.0,97,0.00,,,0.48,TxWx,2013-01-30 10:36:00,
2013-01-30 04:41:00,40.5,40.0,29.08,NNW,334,0.0,0.0,98,0.00,,,0.48,TxWx,2013-01-30 10:41:00,
2013-01-30 04:46:00,40.5,40.0,29.07,NNW,333,0.0,0.0,98,0.00,,,0.48,TxWx,2013-01-30 10:46:00,
2013-01-30 04:51:00,40.5,40.0,29.07,NNW,337,0.0,0.0,98,0.00,,,0.48,TxWx,2013-01-30 10:51:00,
2013-01-30 04:56:00,40.6,40.0,29.07,NNW,332,0.0,0.0,98,0.00,,,0.48,TxWx,2013-01-30 10:56:00,
2013-01-30 05:01:00,40.5,40.0,29.09,NW,318,0.0,0.0,98,0.00,,,0.48,TxWx,2013-01-30 11:01:00,
2013-01-30 05:07:00,40.4,39.0,29.12,NW,315,0.0,0.0,98,0.00,,,0.48,TxWx,2013-01-30 11:07:00,
2013-01-30 05:12:00,40.3,39.0,29.16,NNW,341,0.0,0.0,98,0.00,,,0.48,TxWx,2013-01-30 11:12:00,
2013-01-30 05:17:00,40.2,39.0,29.15,NNW,341,0.0,0.0,98,0.00,,,0.48,TxWx,2013-01-30 11:17:00,
2013-01-30 05:22:00,40.0,39.0,29.14,NW,323,0.0,0.0,98,0.00,,,0.48,TxWx,2013-01-30 11:22:00,
2013-01-30 05:27:00,39.8,39.0,29.12,NW,320,0.0,0.0,98,0.00,,,0.48,TxWx,2013-01-30 11:27:00,
2013-01-30 05:32:00,39.8,39.0,29.13,NW,315,0.0,0.0,98,0.00,,,0.48,TxWx,2013-01-30 11:32:00,
2013-01-30 05:37:00,39.7,39.0,29.15,NW,317,0.0,0.0,98,0.00,,,0.48,TxWx,2013-01-30 11:37:00,
2013-01-30 05:43:00,39.6,39.0,29.14,NW,315,0.0,0.0,98,0.00,,,0.48,TxWx,2013-01-30 11:43:00,
2013-01-30 05:48:00,39.5,38.0,29.13,NNW,335,0.0,0.0,98,0.00,,,0.48,TxWx,2013-01-30 11:48:00,
2013-01-30 05:53:00,39.4,38.0,29.10,NW,322,0.0,0.0,98,0.00,,,0.48,TxWx,2013-01-30 11:53:00,
2013-01-30 05:59:00,39.3,38.0,29.10,NNW,330,0.0,0.0,98,0.00,,,0.48,TxWx,2013-01-30 11:59:00,
2013-01-30 06:04:00,39.2,38.0,29.08,NW,324,0.0,0.0,98,0.00,,,0.48,TxWx,2013-01-30 12:04:00,
2013-01-30 06:09:00,39.2,38.0,29.09,NW,324,0.0,0.0,98,0.00,,,0.48,TxWx,2013-01-30 12:09:00,
2013-01-30 06:14:00,39.2,38.0,29.09,NW,326,0.0,0.0,98,0.00,,,0.48,TxWx,2013-01-30 12:14:00,
2013-01-30 06:19:00,39.2,39.0,29.09,NNW,332,0.0,0.0,99,0.00,,,0.48,TxWx,2013-01-30 12:19:00,
2013-01-30 06:24:00,39.2,39.0,29.09,NNW,329,0.0,0.0,99,0.00,,,0.48,TxWx,2013-01-30 12:24:00,
2013-01-30 06:29:00,39.2,38.0,29.08,NW,321,0.0,0.0,98,0.00,,,0.48,TxWx,2013-01-30 12:29:00,
2013-01-30 06:35:00,39.2,38.0,29.08,NW,322,0.0,0.0,98,0.00,,,0.48,TxWx,2013-01-30 12:35:00,
2013-01-30 06:40:00,39.1,38.0,29.08,NW,325,0.0,0.0,98,0.00,,,0.48,TxWx,2013-01-30 12:40:00,
2013-01-30 06:45:00,39.1,38.0,29.08,NNW,327,0.0,0.0,98,0.00,,,0.48,TxWx,2013-01-30 12:45:00,
2013-01-30 06:50:00,39.0,38.0,29.08,NW,324,0.0,0.0,98,0.00,,,0.48,TxWx,2013-01-30 12:50:00,
2013-01-30 06:55:00,39.0,39.0,29.09,NNW,327,0.0,0.0,99,0.00,,,0.48,TxWx,2013-01-30 12:55:00,
2013-01-30 07:00:00,38.9,38.0,29.09,NW,318,0.0,0.0,98,0.00,,,0.48,TxWx,2013-01-30 13:00:00,
2013-01-30 07:05:00,38.9,38.0,29.09,NW,325,0.0,0.0,98,0.00,,,0.48,TxWx,2013-01-30 13:05:00,
2013-01-30 07:10:00,38.9,39.0,29.09,NW,323,0.0,0.0,99,0.00,,,0.48,TxWx,2013-01-30 13:10:00,
2013-01-30 07:15:00,38.9,38.0,29.08,NW,323,0.0,0.0,98,0.00,,,0.48,TxWx,2013-01-30 13:15:00,
2013-01-30 07:20:00,38.9,39.0,29.09,NW,322,0.0,0.0,99,0.00,,,0.49,TxWx,2013-01-30 13:20:00,
2013-01-30 07:25:00,38.9,39.0,29.09,NNW,328,0.0,0.0,99,0.00,,,0.49,TxWx,2013-01-30 13:25:00,
2013-01-30 07:35:00,38.9,39.0,29.11,NW,315,0.0,0.0,99,0.00,,,0.49,TxWx,2013-01-30 13:35:00,
2013-01-30 07:40:00,39.0,39.0,29.12,NW,314,0.0,0.0,99,0.00,,,0.49,TxWx,2013-01-30 13:40:00,
2013-01-30 07:45:00,39.0,39.0,29.11,NW,315,0.0,0.0,99,0.00,,,0.49,TxWx,2013-01-30 13:45:00,
2013-01-30 07:50:00,38.7,38.0,29.11,NW,318,0.0,0.0,98,0.00,,,0.50,TxWx,2013-01-30 13:50:00,
2013-01-30 07:55:00,38.8,39.0,29.11,NW,323,0.0,0.0,99,0.00,,,0.50,TxWx,2013-01-30 13:55:00,
2013-01-30 08:00:00,38.8,39.0,29.10,NW,319,0.0,0.0,99,0.00,,,0.50,TxWx,2013-01-30 14:00:00,
2013-01-30 08:05:00,38.9,39.0,29.10,NW,316,0.0,0.0,99,0.00,,,0.50,TxWx,2013-01-30 14:05:00,
2013-01-30 08:11:00,38.7,38.0,29.10,NW,319,0.0,0.0,98,0.00,,,0.50,TxWx,2013-01-30 14:11:00,
2013-01-30 08:16:00,38.7,39.0,29.09,NW,316,0.0,0.0,99,0.00,,,0.50,TxWx,2013-01-30 14:16:00,
2013-01-30 08:21:00,38.8,39.0,29.10,NE,51,0.0,0.0,99,0.00,,,0.50,TxWx,2013-01-30 14:21:00,
2013-01-30 08:26:00,38.7,39.0,29.10,NW,321,0.0,0.0,99,0.00,,,0.50,TxWx,2013-01-30 14:26:00,
2013-01-30 08:31:00,38.7,39.0,29.10,NW,319,0.0,0.0,99,0.00,,,0.50,TxWx,2013-01-30 14:31:00,
2013-01-30 08:37:00,38.7,39.0,29.09,NNW,330,0.0,0.0,99,0.00,,,0.51,TxWx,2013-01-30 14:37:00,
2013-01-30 08:42:00,38.7,39.0,29.10,NW,319,0.0,0.0,99,0.00,,,0.51,TxWx,2013-01-30 14:42:00,
2013-01-30 08:47:00,38.7,39.0,29.10,NNW,344,0.0,0.0,99,0.00,,,0.51,TxWx,2013-01-30 14:47:00,
2013-01-30 08:52:00,38.7,39.0,29.09,NNW,346,0.0,0.0,99,0.00,,,0.51,TxWx,2013-01-30 14:52:00,
2013-01-30 08:57:00,38.9,39.0,29.09,NNW,344,0.0,0.0,99,0.00,,,0.51,TxWx,2013-01-30 14:57:00,
2013-01-30 09:03:00,38.9,39.0,29.08,NNW,342,0.0,0.0,99,0.00,,,0.51,TxWx,2013-01-30 15:03:00,
2013-01-30 09:08:00,39.0,39.0,29.08,NNW,343,0.0,0.0,99,0.00,,,0.51,TxWx,2013-01-30 15:08:00,
2013-01-30 09:13:00,39.1,39.0,29.07,NNW,344,0.0,0.0,99,0.00,,,0.51,TxWx,2013-01-30 15:13:00,
2013-01-30 09:18:00,39.0,39.0,29.07,NNW,343,0.0,0.0,99,0.00,,,0.51,TxWx,2013-01-30 15:18:00,
2013-01-30 09:23:00,39.1,39.0,29.06,NNW,344,0.0,0.0,99,0.00,,,0.51,TxWx,2013-01-30 15:23:00,
2013-01-30 09:29:00,39.0,38.0,29.06,NNW,344,0.0,0.0,98,0.00,,,0.51,TxWx,2013-01-30 15:29:00,
2013-01-30 09:34:00,39.2,39.0,29.06,NNW,344,0.0,0.0,99,0.00,,,0.51,TxWx,2013-01-30 15:34:00,
2013-01-30 09:39:00,39.1,38.0,29.07,NNW,344,0.0,0.0,98,0.00,,,0.51,TxWx,2013-01-30 15:39:00,
2013-01-30 09:44:00,39.3,39.0,29.07,NNW,345,0.0,0.0,99,0.00,,,0.51,TxWx,2013-01-30 15:44:00,
2013-01-30 09:49:00,39.5,39.0,29.07,NNW,344,0.0,0.0,99,0.00,,,0.51,TxWx,2013-01-30 15:49:00,
2013-01-30 09:55:00,39.4,38.0,29.07,NNW,344,0.0,0.0,98,0.00,,,0.51,TxWx,2013-01-30 15:55:00,
2013-01-30 10:00:00,39.5,40.0,29.06,NNW,344,0.0,0.0,99,0.00,,,0.51,TxWx,2013-01-30 16:00:00,
2013-01-30 10:05:00,39.4,38.0,29.05,NNW,344,0.0,0.0,98,0.00,,,0.51,TxWx,2013-01-30 16:05:00,
2013-01-30 10:10:00,39.3,38.0,29.04,NNW,344,0.0,0.0,98,0.00,,,0.51,TxWx,2013-01-30 16:10:00,
2013-01-30 10:15:00,39.6,40.0,29.04,NNW,343,0.0,0.0,99,0.00,,,0.51,TxWx,2013-01-30 16:15:00,
2013-01-30 10:20:00,39.5,38.0,29.04,NNW,344,0.0,0.0,98,0.00,,,0.51,TxWx,2013-01-30 16:20:00,
2013-01-30 10:26:00,39.9,40.0,29.04,NNW,342,0.0,0.0,99,0.00,,,0.51,TxWx,2013-01-30 16:26:00,
2013-01-30 10:31:00,40.0,39.0,29.03,NNW,344,0.0,0.0,98,0.00,,,0.52,TxWx,2013-01-30 16:31:00,
2013-01-30 10:36:00,40.1,39.0,29.03,NNW,343,0.0,0.0,98,0.00,,,0.52,TxWx,2013-01-30 16:36:00,
2013-01-30 10:41:00,40.1,39.0,29.03,NNW,344,0.0,0.0,98,0.00,,,0.52,TxWx,2013-01-30 16:41:00,
2013-01-30 10:50:00,40.4,39.0,29.03,NNW,344,0.0,0.0,98,0.00,,,0.52,TxWx,2013-01-30 16:50:00,
2013-01-30 10:55:00,40.4,39.0,29.02,NNW,343,0.0,0.0,98,0.00,,,0.52,TxWx,2013-01-30 16:55:00,
2013-01-30 11:00:00,40.6,40.0,29.02,NNW,344,0.0,0.0,98,0.00,,,0.52,TxWx,2013-01-30 17:00:00,
2013-01-30 11:05:00,40.7,40.0,29.01,NNW,344,0.0,0.0,98,0.00,,,0.52,TxWx,2013-01-30 17:05:00,
2013-01-30 11:11:00,41.1,40.0,29.01,NNW,344,0.0,0.0,98,0.00,,,0.52,TxWx,2013-01-30 17:11:00,
2013-01-30 11:16:00,41.3,40.0,29.00,NNW,343,0.0,0.0,98,0.00,,,0.52,TxWx,2013-01-30 17:16:00,
2013-01-30 11:21:00,41.6,41.0,29.00,NNW,344,0.0,0.0,98,0.00,,,0.52,TxWx,2013-01-30 17:21:00,
2013-01-30 11:27:00,41.9,41.0,29.00,NNW,344,0.0,0.0,98,0.00,,,0.52,TxWx,2013-01-30 17:27:00,
2013-01-30 11:32:00,42.3,41.0,28.99,NNW,345,0.0,0.0,98,0.00,,,0.52,TxWx,2013-01-30 17:32:00,
2013-01-30 11:37:00,42.9,42.0,29.00,NNW,344,0.0,0.0,98,0.00,,,0.52,TxWx,2013-01-30 17:37:00,
2013-01-30 11:42:00,43.5,42.0,28.99,NNW,345,0.0,0.0,98,0.00,,,0.52,TxWx,2013-01-30 17:42:00,
2013-01-30 11:48:00,43.7,43.0,28.98,NNW,344,0.0,0.0,98,0.00,,,0.52,TxWx,2013-01-30 17:48:00,
2013-01-30 11:53:00,44.1,43.0,28.99,NNW,343,0.0,0.0,98,0.00,,,0.52,TxWx,2013-01-30 17:53:00,
2013-01-30 11:58:00,44.3,43.0,28.98,NNW,344,0.0,0.0,98,0.00,,,0.52,TxWx,2013-01-30 17:58:00,
2013-01-30 12:03:00,44.7,44.0,28.98,NNW,344,0.0,0.0,98,0.00,,,0.52,TxWx,2013-01-30 18:03:00,
2013-01-30 12:08:00,45.0,44.0,28.98,NNW,344,0.0,0.0,98,0.00,,,0.52,TxWx,2013-01-30 18:08:00,
2013-01-30 12:13:00,45.5,45.0,28.96,NNW,344,0.0,0.0,98,0.00,,,0.52,TxWx,2013-01-30 18:13:00,
2013-01-30 12:18:00,46.0,45.0,28.97,NNW,344,0.0,0.0,98,0.00,,,0.52,TxWx,2013-01-30 18:18:00,
2013-01-30 12:23:00,46.4,45.0,28.97,NNW,344,0.0,0.0,98,0.00,,,0.52,TxWx,2013-01-30 18:23:00,
2013-01-30 12:29:00,47.0,46.0,28.97,NNW,343,0.0,0.0,98,0.00,,,0.52,TxWx,2013-01-30 18:29:00,
2013-01-30 12:34:00,47.6,47.0,28.97,NNW,344,0.0,0.0,98,0.00,,,0.52,TxWx,2013-01-30 18:34:00,
2013-01-30 12:39:00,48.3,47.0,28.96,NNW,344,0.0,0.0,98,0.00,,,0.52,TxWx,2013-01-30 18:39:00,
2013-01-30 12:44:00,48.7,48.0,28.96,NNW,344,0.0,0.0,97,0.00,,,0.52,TxWx,2013-01-30 18:44:00,
2013-01-30 12:49:00,48.6,47.0,28.95,NNW,344,0.0,0.0,94,0.00,,,0.52,TxWx,2013-01-30 18:49:00,
2013-01-30 12:54:00,48.5,45.0,28.96,NNW,345,0.0,0.0,91,0.00,,,0.52,TxWx,2013-01-30 18:54:00,
2013-01-30 12:59:00,48.5,46.0,28.95,NNW,344,0.0,0.0,88,0.00,,,0.52,TxWx,2013-01-30 18:59:00,
2013-01-30 13:05:00,48.4,44.0,28.95,NNW,344,0.0,0.0,85,0.00,,,0.53,TxWx,2013-01-30 19:05:00,
2013-01-30 13:10:00,48.4,43.0,28.95,NNW,343,0.0,0.0,84,0.00,,,0.53,TxWx,2013-01-30 19:10:00,
2013-01-30 13:19:00,48.0,43.0,28.95,NNW,344,0.0,0.0,82,0.00,,,0.53,TxWx,2013-01-30 19:19:00,
2013-01-30 13:24:00,47.5,43.0,28.95,NNW,344,0.0,0.0,84,0.00,,,0.53,TxWx,2013-01-30 19:24:00,
2013-01-30 13:29:00,47.0,42.0,28.95,NNW,344,0.0,0.0,84,0.00,,,0.53,TxWx,2013-01-30 19:29:00,
2013-01-30 13:34:00,46.5,41.0,28.95,NNW,345,0.0,0.0,84,0.00,,,0.53,TxWx,2013-01-30 19:34:00,
2013-01-30 13:39:00,45.9,41.0,28.96,NNW,345,0.0,0.0,83,0.00,,,0.53,TxWx,2013-01-30 19:39:00,
2013-01-30 13:44:00,45.4,40.0,28.97,NNW,345,0.0,0.0,84,0.00,,,0.53,TxWx,2013-01-30 19:44:00,
2013-01-30 13:50:00,44.2,40.0,28.97,NNW,346,0.0,0.0,86,0.00,,,0.53,TxWx,2013-01-30 19:50:00,
2013-01-30 13:55:00,42.8,39.0,28.97,NNW,345,0.0,0.0,86,0.00,,,0.53,TxWx,2013-01-30 19:55:00,
2013-01-30 14:00:00,42.6,39.0,28.97,NNW,345,0.0,0.0,86,0.00,,,0.53,TxWx,2013-01-30 20:00:00,
2013-01-30 14:05:00,42.1,38.0,28.97,NNW,345,0.0,0.0,86,0.00,,,0.53,TxWx,2013-01-30 20:05:00,
2013-01-30 14:10:00,41.7,38.0,28.97,NNW,345,0.0,0.0,87,0.00,,,0.53,TxWx,2013-01-30 20:10:00,
2013-01-30 14:16:00,41.3,38.0,28.97,NNW,345,0.0,0.0,88,0.00,,,0.53,TxWx,2013-01-30 20:16:00,
2013-01-30 14:21:00,40.8,38.0,28.99,NNW,345,0.0,0.0,89,0.00,,,0.53,TxWx,2013-01-30 20:21:00,
2013-01-30 14:26:00,40.3,37.0,28.99,NNW,345,0.0,0.0,90,0.00,,,0.53,TxWx,2013-01-30 20:26:00,
2013-01-30 14:31:00,39.5,37.0,28.98,NNW,345,0.0,0.0,89,0.00,,,0.53,TxWx,2013-01-30 20:31:00,
2013-01-30 14:36:00,39.5,36.0,28.96,NNW,345,0.0,0.0,88,0.00,,,0.53,TxWx,2013-01-30 20:36:00,
2013-01-30 14:41:00,39.6,37.0,28.97,NNW,345,0.0,0.0,88,0.00,,,0.53,TxWx,2013-01-30 20:41:00,
2013-01-30 14:46:00,39.7,36.0,28.98,NNW,345,0.0,0.0,87,0.00,,,0.53,TxWx,2013-01-30 20:46:00,
2013-01-30 14:52:00,39.4,35.0,28.98,NNW,345,0.0,0.0,86,0.00,,,0.53,TxWx,2013-01-30 20:52:00,
2013-01-30 14:57:00,39.1,35.0,28.98,NNW,345,0.0,0.0,87,0.00,,,0.53,TxWx,2013-01-30 20:57:00,
2013-01-30 15:02:00,38.7,35.0,28.99,NNW,345,0.0,0.0,85,0.00,,,0.53,TxWx,2013-01-30 21:02:00,
2013-01-30 15:07:00,38.6,34.0,28.99,NNW,345,0.0,0.0,82,0.00,,,0.53,TxWx,2013-01-30 21:07:00,
2013-01-30 15:12:00,38.5,34.0,29.00,NNW,345,0.0,0.0,82,0.00,,,0.53,TxWx,2013-01-30 21:12:00,
2013-01-30 15:18:00,38.6,34.0,29.01,NNW,348,0.0,0.0,82,0.00,,,0.53,TxWx,2013-01-30 21:18:00,
2013-01-30 15:23:00,38.5,34.0,29.01,NNW,345,0.0,0.0,82,0.00,,,0.53,TxWx,2013-01-30 21:23:00,
2013-01-30 15:28:00,38.6,34.0,29.00,NNW,345,0.0,0.0,83,0.00,,,0.53,TxWx,2013-01-30 21:28:00,
2013-01-30 15:33:00,38.5,33.0,29.01,NNW,345,0.0,0.0,83,0.00,,,0.53,TxWx,2013-01-30 21:33:00,
2013-01-30 15:38:00,38.5,33.0,28.99,NNW,345,0.0,0.0,84,0.00,,,0.53,TxWx,2013-01-30 21:38:00,
2013-01-30 15:43:00,38.6,35.0,28.99,NNW,345,0.0,0.0,84,0.00,,,0.53,TxWx,2013-01-30 21:43:00,
2013-01-30 15:49:00,38.6,34.0,29.00,NNW,345,0.0,0.0,84,0.00,,,0.53,TxWx,2013-01-30 21:49:00,
2013-01-30 15:54:00,38.7,34.0,28.99,NNW,345,0.0,0.0,83,0.00,,,0.53,TxWx,2013-01-30 21:54:00,
2013-01-30 15:59:00,38.5,34.0,28.99,NNW,345,0.0,0.0,83,0.00,,,0.53,TxWx,2013-01-30 21:59:00,
2013-01-30 16:04:00,38.4,33.0,28.99,NW,314,0.0,0.0,84,0.00,,,0.53,TxWx,2013-01-30 22:04:00,
2013-01-30 16:09:00,36.4,33.0,29.00,NW,315,0.0,0.0,88,0.00,,,0.53,TxWx,2013-01-30 22:09:00,
2013-01-30 16:14:00,35.0,33.0,29.02,NW,322,0.0,0.0,92,0.00,,,0.53,TxWx,2013-01-30 22:14:00,
2013-01-30 16:20:00,34.6,33.0,29.02,NW,319,0.0,0.0,94,0.00,,,0.53,TxWx,2013-01-30 22:20:00,
2013-01-30 16:25:00,33.9,32.0,29.02,NW,315,0.0,0.0,94,0.00,,,0.54,TxWx,2013-01-30 22:25:00,
2013-01-30 16:30:00,33.6,33.0,29.02,NW,320,0.0,0.0,95,0.00,,,0.54,TxWx,2013-01-30 22:30:00,
2013-01-30 16:35:00,33.1,31.0,29.03,NW,313,0.0,0.0,95,0.00,,,0.54,TxWx,2013-01-30 22:35:00,
2013-01-30 16:40:00,32.8,31.0,29.04,NW,317,0.0,0.0,95,0.00,,,0.54,TxWx,2013-01-30 22:40:00,
2013-01-30 16:45:00,32.5,31.0,29.03,NW,321,0.0,0.0,95,0.00,,,0.54,TxWx,2013-01-30 22:45:00,
2013-01-30 16:51:00,32.1,30.0,29.05,NW,316,0.0,0.0,96,0.00,,,0.54,TxWx,2013-01-30 22:51:00,
2013-01-30 16:56:00,31.9,30.0,29.05,NW,316,0.0,0.0,96,0.00,,,0.54,TxWx,2013-01-30 22:56:00,
2013-01-30 17:01:00,31.5,30.0,29.06,NW,326,0.0,0.0,97,0.00,,,0.54,TxWx,2013-01-30 23:01:00,
2013-01-30 17:06:00,31.0,29.0,29.07,North,356,0.0,0.0,96,0.00,,,0.54,TxWx,2013-01-30 23:06:00,
2013-01-30 17:12:00,30.6,29.0,29.07,NW,326,0.0,0.0,97,0.00,,,0.54,TxWx,2013-01-30 23:12:00,
2013-01-30 17:17:00,30.3,28.0,29.07,NW,323,0.0,0.0,97,0.00,,,0.54,TxWx,2013-01-30 23:17:00,
2013-01-30 17:22:00,30.2,29.0,29.08,NW,315,0.0,0.0,98,0.00,,,0.54,TxWx,2013-01-30 23:22:00,
2013-01-30 17:27:00,30.0,28.0,29.08,NW,319,0.0,0.0,97,0.00,,,0.54,TxWx,2013-01-30 23:27:00,
2013-01-30 17:32:00,30.1,28.0,29.09,NW,323,0.0,0.0,97,0.00,,,0.54,TxWx,2013-01-30 23:32:00,
2013-01-30 17:38:00,30.0,28.0,29.09,NW,314,0.0,0.0,96,0.00,,,0.54,TxWx,2013-01-30 23:38:00,
2013-01-30 17:47:00,29.8,28.0,29.10,NW,322,0.0,0.0,96,0.00,,,0.54,TxWx,2013-01-30 23:47:00,
2013-01-30 17:52:00,29.7,28.0,29.10,NW,323,0.0,0.0,96,0.00,,,0.54,TxWx,2013-01-30 23:52:00,
2013-01-30 17:57:00,29.6,28.0,29.11,NW,326,0.0,0.0,95,0.00,,,0.54,TxWx,2013-01-30 23:57:00,
2013-01-30 18:02:00,29.4,26.0,29.11,NW,324,0.0,0.0,94,0.00,,,0.54,TxWx,2013-01-31 00:02:00,
2013-01-30 18:07:00,29.3,26.0,29.12,NW,317,0.0,0.0,94,0.00,,,0.54,TxWx,2013-01-31 00:07:00,
2013-01-30 18:13:00,29.1,26.0,29.13,NNE,32,0.0,0.0,94,0.00,,,0.54,TxWx,2013-01-31 00:13:00,
2013-01-30 18:18:00,29.1,26.0,29.13,NW,319,0.0,0.0,94,0.00,,,0.54,TxWx,2013-01-31 00:18:00,
2013-01-30 18:23:00,29.0,26.0,29.14,NW,322,0.0,0.0,93,0.00,,,0.54,TxWx,2013-01-31 00:23:00,
2013-01-30 18:28:00,28.7,26.0,29.14,NW,321,0.0,0.0,93,0.00,,,0.54,TxWx,2013-01-31 00:28:00,
2013-01-30 18:34:00,28.8,26.0,29.15,NNW,333,0.0,0.0,94,0.00,,,0.54,TxWx,2013-01-31 00:34:00,
2013-01-30 18:39:00,28.8,26.0,29.15,ENE,57,0.0,0.0,94,0.00,,,0.54,TxWx,2013-01-31 00:39:00,
2013-01-30 18:44:00,28.8,26.0,29.15,NW,322,0.0,0.0,94,0.00,,,0.54,TxWx,2013-01-31 00:44:00,
2013-01-30 18:49:00,28.8,26.0,29.15,NW,324,0.0,0.0,94,0.00,,,0.54,TxWx,2013-01-31 00:49:00,
2013-01-30 18:54:00,28.8,26.0,29.16,NW,319,0.0,0.0,94,0.00,,,0.54,TxWx,2013-01-31 00:54:00,
2013-01-30 18:59:00,28.7,26.0,29.16,NW,315,0.0,0.0,93,0.00,,,0.54,TxWx,2013-01-31 00:59:00,
2013-01-30 19:04:00,28.6,26.0,29.16,NW,315,0.0,0.0,92,0.00,,,0.54,TxWx,2013-01-31 01:04:00,
2013-01-30 19:09:00,28.5,24.0,29.16,NW,313,0.0,0.0,90,0.00,,,0.54,TxWx,2013-01-31 01:09:00,
2013-01-30 19:15:00,28.4,25.0,29.17,NNW,344,0.0,0.0,92,0.00,,,0.54,TxWx,2013-01-31 01:15:00,
2013-01-30 19:20:00,28.2,25.0,29.17,NW,320,0.0,0.0,91,0.00,,,0.54,TxWx,2013-01-31 01:20:00,
2013-01-30 19:25:00,28.2,24.0,29.17,NW,315,0.0,0.0,89,0.00,,,0.54,TxWx,2013-01-31 01:25:00,
2013-01-30 19:30:00,28.2,24.0,29.17,NW,323,0.0,0.0,89,0.00,,,0.54,TxWx,2013-01-31 01:30:00,
2013-01-30 19:35:00,28.2,24.0,29.17,NW,320,0.0,0.0,89,0.00,,,0.54,TxWx,2013-01-31 01:35:00,
2013-01-30 19:41:00,28.2,24.0,29.17,NW,320,0.0,0.0,88,0.00,,,0.54,TxWx,2013-01-31 01:41:00,
2013-01-30 19:46:00,28.2,24.0,29.17,NW,320,0.0,0.0,87,0.00,,,0.54,TxWx,2013-01-31 01:46:00,
2013-01-30 19:51:00,28.2,24.0,29.17,NW,320,0.0,0.0,88,0.00,,,0.54,TxWx,2013-01-31 01:51:00,
2013-01-30 19:56:00,28.2,24.0,29.18,NW,314,0.0,0.0,88,0.00,,,0.54,TxWx,2013-01-31 01:56:00,
2013-01-30 20:01:00,28.2,24.0,29.18,NW,313,0.0,0.0,87,0.00,,,0.54,TxWx,2013-01-31 02:01:00,
2013-01-30 20:06:00,28.2,23.0,29.18,NW,323,0.0,0.0,87,0.00,,,0.54,TxWx,2013-01-31 02:06:00,
2013-01-30 20:11:00,28.2,24.0,29.18,NE,54,0.0,0.0,88,0.00,,,0.54,TxWx,2013-01-31 02:11:00,
2013-01-30 20:16:00,28.2,24.0,29.18,NW,321,0.0,0.0,88,0.00,,,0.54,TxWx,2013-01-31 02:16:00,
2013-01-30 20:22:00,28.2,24.0,29.18,NW,326,0.0,0.0,89,0.00,,,0.54,TxWx,2013-01-31 02:22:00,
2013-01-30 20:27:00,28.2,24.0,29.18,NNE,19,0.0,0.0,89,0.00,,,0.54,TxWx,2013-01-31 02:27:00,
2013-01-30 20:32:00,28.1,24.0,29.19,ENE,57,0.0,0.0,89,0.00,,,0.54,TxWx,2013-01-31 02:32:00,
2013-01-30 20:37:00,28.1,24.0,29.19,NW,319,0.0,0.0,89,0.00,,,0.54,TxWx,2013-01-31 02:37:00,
2013-01-30 20:42:00,27.6,25.0,29.20,NW,323,0.0,0.0,91,0.00,,,0.54,TxWx,2013-01-31 02:42:00,
2013-01-30 20:47:00,27.2,24.0,29.20,NW,321,0.0,0.0,92,0.00,,,0.54,TxWx,2013-01-31 02:47:00,
2013-01-30 20:52:00,27.2,24.0,29.21,NNE,26,0.0,0.0,91,0.00,,,0.54,TxWx,2013-01-31 02:52:00,
2013-01-30 20:57:00,27.1,24.0,29.21,NW,314,0.0,0.0,91,0.00,,,0.54,TxWx,2013-01-31 02:57:00,
2013-01-30 21:03:00,27.1,23.0,29.21,NNW,346,0.0,0.0,90,0.00,,,0.54,TxWx,2013-01-31 03:03:00,
2013-01-30 21:08:00,27.0,23.0,29.22,NW,316,0.0,0.0,89,0.00,,,0.54,TxWx,2013-01-31 03:08:00,
2013-01-30 21:13:00,26.9,23.0,29.22,NW,318,0.0,0.0,88,0.00,,,0.54,TxWx,2013-01-31 03:13:00,
2013-01-30 21:18:00,26.8,22.0,29.23,NW,316,0.0,0.0,86,0.00,,,0.54,TxWx,2013-01-31 03:18:00,
2013-01-30 21:23:00,26.8,22.0,29.23,NW,318,0.0,0.0,86,0.00,,,0.54,TxWx,2013-01-31 03:23:00,
2013-01-30 21:28:00,26.7,23.0,29.23,NW,313,0.0,0.0,87,0.00,,,0.54,TxWx,2013-01-31 03:28:00,
2013-01-30 21:34:00,26.5,22.0,29.24,NW,323,0.0,0.0,90,0.00,,,0.54,TxWx,2013-01-31 03:34:00,
2013-01-30 21:39:00,26.5,23.0,29.24,NW,314,0.0,0.0,91,0.00,,,0.54,TxWx,2013-01-31 03:39:00,
2013-01-30 21:44:00,26.5,23.0,29.24,NW,314,0.0,0.0,90,0.00,,,0.54,TxWx,2013-01-31 03:44:00,
2013-01-30 21:49:00,26.6,23.0,29.25,NNW,346,0.0,0.0,87,0.00,,,0.54,TxWx,2013-01-31 03:49:00,
2013-01-30 21:54:00,26.5,21.0,29.25,NNW,346,0.0,0.0,85,0.00,,,0.54,TxWx,2013-01-31 03:54:00,
2013-01-30 21:59:00,26.2,21.0,29.26,ENE,58,0.0,0.0,84,0.00,,,0.54,TxWx,2013-01-31 03:59:00,
2013-01-30 22:04:00,25.7,20.0,29.26,NW,315,0.0,0.0,83,0.00,,,0.54,TxWx,2013-01-31 04:04:00,
2013-01-30 22:09:00,25.5,20.0,29.27,NW,317,0.0,0.0,83,0.00,,,0.54,TxWx,2013-01-31 04:09:00,
2013-01-30 22:14:00,25.4,20.0,29.27,NW,322,0.0,0.0,84,0.00,,,0.54,TxWx,2013-01-31 04:14:00,
2013-01-30 22:19:00,25.2,20.0,29.27,NW,319,0.0,0.0,84,0.00,,,0.54,TxWx,2013-01-31 04:19:00,
2013-01-30 22:25:00,25.0,19.0,29.28,NW,317,0.0,0.0,83,0.00,,,0.54,TxWx,2013-01-31 04:25:00,
2013-01-30 22:30:00,24.5,18.0,29.28,NW,313,0.0,0.0,82,0.00,,,0.54,TxWx,2013-01-31 04:30:00,
2013-01-30 22:35:00,23.8,18.0,29.29,NW,314,0.0,0.0,80,0.00,,,0.54,TxWx,2013-01-31 04:35:00,
2013-01-30 22:40:00,23.7,18.0,29.29,NW,320,0.0,0.0,81,0.00,,,0.54,TxWx,2013-01-31 04:40:00,
2013-01-30 22:45:00,23.7,17.0,29.29,NW,324,0.0,0.0,79,0.00,,,0.54,TxWx,2013-01-31 04:45:00,
2013-01-30 22:50:00,23.7,17.0,29.30,NW,319,0.0,0.0,77,0.00,,,0.54,TxWx,2013-01-31 04:50:00,
2013-01-30 22:56:00,23.8,17.0,29.30,NW,323,0.0,0.0,77,0.00,,,0.54,TxWx,2013-01-31 04:56:00,
2013-01-30 23:00:00,23.9,17.0,29.31,NW,323,0.0,0.0,77,0.00,,,0.54,TxWx,2013-01-31 05:00:00,
2013-01-30 23:04:00,23.8,17.0,29.31,NE,48,0.0,0.0,78,0.00,,,0.00,TxWx,2013-01-31 05:04:00,
2013-01-30 23:05:00,23.8,17.0,29.31,NW,318,0.0,0.0,78,0.00,,,0.00,TxWx,2013-01-31 05:05:00,
2013-01-30 23:06:00,23.9,17.0,29.31,NNW,327,0.0,0.0,78,0.00,,,0.00,TxWx,2013-01-31 05:06:00,
2013-01-30 23:11:00,23.8,18.0,29.31,NW,314,0.0,0.0,80,0.00,,,0.00,TxWx,2013-01-31 05:11:00,
2013-01-30 23:17:00,23.7,18.0,29.32,NE,49,0.0,0.0,80,0.00,,,0.00,TxWx,2013-01-31 05:17:00,
2013-01-30 23:22:00,23.6,18.0,29.32,NNW,347,0.0,0.0,83,0.00,,,0.00,TxWx,2013-01-31 05:22:00,
2013-01-30 23:27:00,23.4,18.0,29.32,NNW,348,0.0,0.0,85,0.00,,,0.00,TxWx,2013-01-31 05:27:00,
2013-01-30 23:33:00,23.3,18.0,29.33,NW,318,0.0,0.0,86,0.00,,,0.00,TxWx,2013-01-31 05:33:00,
2013-01-30 23:38:00,23.1,19.0,29.33,NW,325,0.0,0.0,87,0.00,,,0.00,TxWx,2013-01-31 05:38:00,
2013-01-30 23:43:00,22.9,19.0,29.34,NW,320,0.0,0.0,87,0.00,,,0.00,TxWx,2013-01-31 05:43:00,
2013-01-30 23:48:00,22.9,18.0,29.34,NW,313,0.0,0.0,86,0.00,,,0.00,TxWx,2013-01-31 05:48:00,
2013-01-30 23:53:00,22.7,18.0,29.34,NW,319,0.0,0.0,86,0.00,,,0.00,TxWx,2013-01-31 05:53:00,
2013-01-30 23:59:00,22.7,18.0,29.34,NNW,347,0.0,0.0,86,0.00,,,0.00,TxWx,2013-01-31 05:59:00,